Joplin, MO

7:34 AM CST on December 04, 2016 (GMT -0600)
Joplin Regional

Weather History for KJLN - April, 2014

Change the Weather History Date:

Thursday, April 24, 2014

  Actual Average Record
Temperature  
Mean Temperature 60 °F 61 °F  
Max Temperature 73 °F 73 °F 89 °F (1989)
Min Temperature 47 °F 50 °F 31 °F (2005)
Degree Days  
Heating Degree Days 5 6  
Month to date heating degree days 226 211  
Since 1 July heating degree days 4738 3973  
Cooling Degree Days 0 2  
Month to date cooling degree days 12 32  
Year to date cooling degree days 12 42  
Growing Degree Days 12 (Base 50)    
Moisture  
Dew Point 54 °F    
Average Humidity 67    
Maximum Humidity 86    
Minimum Humidity 48    
Precipitation  
Precipitation 0.31 in 0.18 in 1.59 in (1993)
Month to date precipitation 1.18 3.38  
Year to date precipitation 3.91 11.15  
Sea Level Pressure  
Sea Level Pressure 29.69 in    
Wind  
Wind Speed 16 mph (SW)    
Max Wind Speed 33 mph    
Max Gust Speed 45 mph    
Visibility 9 miles    
Events Rain , Thunderstorm    
T = Trace of Precipitation, MM = Missing Value Source: NWS Daily Summary

Daily Weather History Graph

Daily Weather History Graph

Search for Another Location

Airport or City:

Trip Planner

Search our weather history database for the weather conditions in past years. The results will help you decide how hot, cold, wet, or windy it might be!

Date:

Astronomy

Apr. 24, 2014 Rise Set
Actual Time 6:31 AM CDT 8:01 PM CDT
Civil Twilight 6:04 AM CDT 8:28 PM CDT
Nautical Twilight 5:31 AM CDT 9:01 PM CDT
Astronomical Twilight 4:56 AM CDT 9:36 PM CDT
Moon 3:36 AM CDT (4/24) 3:23 PM CDT (4/24)
Length of Visible Light 14h 24m
Length of Day
13h 29m
Waning Crescent, 24% of the Moon is Illuminated
Apr 24
Waning Crescent
Apr 29
New
May 6
First Quarter
May 14
Full
May 21
Last Quarter

Hourly Weather History & Observations

Time (CDT) Temp. Dew Point Humidity Pressure Visibility Wind Dir Wind Speed Gust Speed Precip Events Conditions
12:53 AM 68.0 °F 48.0 °F 49% 29.75 in 10.0 mi SSE 18.4 mph 27.6 mph N/A   Clear
1:53 AM 66.9 °F 46.9 °F 49% 29.72 in 10.0 mi SSE 18.4 mph 26.5 mph N/A   Clear
2:53 AM 66.9 °F 46.0 °F 47% 29.65 in 10.0 mi SSE 19.6 mph 32.2 mph N/A   Clear
3:53 AM 68.0 °F 48.0 °F 49% 29.65 in 10.0 mi SSE 20.7 mph 26.5 mph N/A   Clear
4:53 AM 66.9 °F 48.9 °F 52% 29.65 in 10.0 mi SSE 16.1 mph 21.9 mph N/A   Partly Cloudy
5:46 AM 64.9 °F 51.1 °F 61% 29.68 in 8.0 mi South 16.1 mph - 0.01 in Rain , Thunderstorm Light Thunderstorms and Rain
5:53 AM 64.0 °F 52.0 °F 65% 29.64 in 5.0 mi SE 8.1 mph - 0.03 in Rain , Thunderstorm Thunderstorms and Rain
6:16 AM 64.0 °F 53.1 °F 67% 29.67 in 10.0 mi South 13.8 mph - 0.00 in   Scattered Clouds
6:35 AM 64.0 °F 52.0 °F 65% 29.68 in 10.0 mi South 13.8 mph - 0.00 in Rain , Thunderstorm Light Thunderstorms and Rain
6:53 AM 64.0 °F 52.0 °F 65% 29.65 in 10.0 mi South 18.4 mph - 0.00 in Rain , Thunderstorm Light Thunderstorms and Rain
7:09 AM 64.0 °F 51.1 °F 63% 29.69 in 10.0 mi South 17.3 mph - 0.00 in   Mostly Cloudy
7:53 AM 62.1 °F 53.1 °F 72% 29.67 in 10.0 mi South 17.3 mph - 0.03 in Rain Light Rain
8:53 AM 64.9 °F 54.0 °F 68% 29.66 in 10.0 mi South 18.4 mph - 0.00 in   Scattered Clouds
9:53 AM 64.9 °F 55.9 °F 73% 29.63 in 10.0 mi South 16.1 mph 24.2 mph 0.03 in Rain Light Rain
10:53 AM 68.0 °F 55.9 °F 65% 29.66 in 10.0 mi SW 19.6 mph 29.9 mph 0.00 in   Partly Cloudy
11:18 AM 71.1 °F 55.9 °F 59% 29.67 in 10.0 mi SSW 19.6 mph 28.8 mph N/A Thunderstorm Thunderstorm
11:53 AM 72.0 °F 57.0 °F 59% 29.63 in 10.0 mi SSW 27.6 mph 44.9 mph 0.00 in Rain Light Rain
12:53 PM 66.9 °F 57.9 °F 73% 29.63 in 10.0 mi SSW 27.6 mph 35.7 mph 0.01 in Rain Light Rain
1:13 PM 66.0 °F 60.1 °F 81% 29.66 in 10.0 mi SSW 18.4 mph 31.1 mph 0.03 in Rain Light Rain
1:22 PM 66.0 °F 59.0 °F 78% 29.66 in 10.0 mi SSW 25.3 mph 31.1 mph 0.03 in Rain , Thunderstorm Light Rain
1:29 PM 66.0 °F 59.0 °F 78% 29.66 in 10.0 mi SSW 25.3 mph 29.9 mph 0.03 in   Overcast
1:35 PM 66.0 °F 59.0 °F 78% 29.66 in 10.0 mi South 18.4 mph 31.1 mph 0.03 in   Overcast
1:53 PM 66.0 °F 59.0 °F 78% 29.64 in 10.0 mi SSW 20.7 mph 31.1 mph 0.03 in   Overcast
2:01 PM 66.0 °F 59.0 °F 78% 29.65 in 7.0 mi SSW 18.4 mph 29.9 mph 0.02 in Rain , Thunderstorm Light Thunderstorms and Rain
2:53 PM 68.0 °F 61.0 °F 78% 29.61 in 10.0 mi SW 16.1 mph 27.6 mph 0.02 in   Mostly Cloudy
3:06 PM 69.1 °F 61.0 °F 75% 29.62 in 10.0 mi SW 17.3 mph 21.9 mph N/A   Overcast
3:15 PM 69.1 °F 60.1 °F 73% 29.64 in 10.0 mi SW 21.9 mph 32.2 mph N/A Thunderstorm Mostly Cloudy
3:17 PM 68.0 °F 60.8 °F 78% 29.64 in 10.0 mi WSW 23.0 mph 32.2 mph N/A Thunderstorm Thunderstorm
3:29 PM 63.0 °F 59.0 °F 87% 29.66 in 3.0 mi West 20.7 mph 32.2 mph 0.11 in Thunderstorm Overcast
3:43 PM 61.0 °F 57.9 °F 90% 29.66 in 3.0 mi West 13.8 mph - 0.15 in Rain Light Rain
3:49 PM 60.8 °F 57.2 °F 88% 29.65 in 8.0 mi WNW 17.3 mph 21.9 mph 0.16 in Rain Light Rain
3:53 PM 60.1 °F 57.9 °F 93% 29.63 in 10.0 mi WNW 20.7 mph 25.3 mph 0.16 in Rain Light Rain
4:29 PM 61.0 °F 57.0 °F 87% 29.68 in 10.0 mi WNW 15.0 mph 23.0 mph 0.00 in   Overcast
4:53 PM 60.1 °F 57.0 °F 90% 29.68 in 10.0 mi WNW 11.5 mph - 0.00 in Rain Light Rain
5:53 PM 57.9 °F 54.0 °F 87% 29.73 in 10.0 mi NW 12.7 mph - 0.00 in Rain Light Rain
6:53 PM 59.0 °F 51.1 °F 75% 29.76 in 10.0 mi NW 12.7 mph - 0.00 in   Mostly Cloudy
7:00 PM 57.9 °F 51.1 °F 78% 29.77 in 10.0 mi NW 12.7 mph - N/A   Mostly Cloudy
7:53 PM 57.9 °F 48.9 °F 72% 29.80 in 10.0 mi WNW 10.4 mph - N/A   Overcast
8:53 PM 57.0 °F 44.1 °F 62% 29.84 in 10.0 mi NW 17.3 mph - N/A   Overcast
9:53 PM 54.0 °F 44.1 °F 69% 29.88 in 10.0 mi NW 8.1 mph - N/A   Partly Cloudy
10:53 PM 51.1 °F 44.1 °F 77% 29.89 in 10.0 mi West 4.6 mph - N/A   Clear
11:53 PM 50.0 °F 44.1 °F 80% 29.90 in 10.0 mi WSW 4.6 mph - N/A   Clear